User: anonymous   Login
Location: *
(38.3914°N, 75.0697°W)
Time: 07:06:52
(UTC+00:00)
Language:

ARGOS - Orbit

View from above orbital plane
View from above orbital plane
View from above satellite
View from above satellite

Ground track
Ground track

The orbit data is extracted from the following two-line orbital elements,

1 25634U 99008A   20156.70482780 -.00000006  00000-0  17126-4 0  9994
2 25634  98.4622 196.0430 0009389 320.1388  39.9099 14.19373576102165
Epoch (UTC): 04 June 2020 16:54:57
Eccentricity: 0.0009389
inclination: 98.4622°
perigee height: 821 km
apogee height: 834 km
right ascension of ascending node: 196.0430°
argument of perigee: 320.1388°
revolutions per day: 14.19373576
mean anomaly at epoch: 39.9099°
orbit number at epoch: 10216

The dashed part of the orbit path shows where the satellite is in the earth's shadow,  

DLR